Weather History for KRND - July, 2013

Change the Weather History Date:

Tuesday, July 30, 2013

  Actual Average (KSAT) Record (KSAT)
Temperature  
Mean Temperature 88 °F 85 °F  
Max Temperature 100 °F 96 °F 104 °F (1960)
Min Temperature 76 °F 75 °F 68 °F (1949)
Degree Days  
Heating Degree Days 0 0  
Month to date heating degree days 0  
Since 1 June heating degree days 0  
Since 1 July heating degree days 0  
Cooling Degree Days 23 20  
Month to date cooling degree days 586  
Year to date cooling degree days 1738  
Since 1 June cooling degree days 1109  
Growing Degree Days 38 (Base 50)    
Moisture  
Dew Point 71 °F    
Average Humidity 68    
Maximum Humidity 89    
Minimum Humidity 26    
Precipitation  
Precipitation 0.00 in 0.06 in 1.27 in (1933)
Month to date precipitation 2.69  
Year to date precipitation 18.80  
Snow  
Snow 0.00 in - - ()
Month to date snowfall  
Since 1 June snowfall  
Since 1 July snowfall  
Snow Depth -    
Sea Level Pressure  
Sea Level Pressure 30.05 in    
Wind  
Wind Speed 11 mph (South)    
Max Wind Speed 17 mph    
Max Gust Speed 23 mph    
Visibility 10 miles    
Events      
T = Trace of Precipitation, MM = Missing Value Source: NWS Daily Summary

Daily Weather History Graph

Daily Weather History Graph

Search for Another Location

Airport or City:

Trip Planner

Search our weather history database for the weather conditions in past years. The results will help you decide how hot, cold, wet, or windy it might be!

Date:

Astronomy

Jul. 30, 2013 Rise Set
Actual Time 6:51 AM CDT 8:26 PM CDT
Civil Twilight 6:26 AM CDT 8:52 PM CDT
Nautical Twilight 5:55 AM CDT 9:23 PM CDT
Astronomical Twilight 5:22 AM CDT 9:55 PM CDT
Moon 1:07 AM CDT (7/30) 2:49 PM CDT (7/30)
Length of Visible Light 14h 26m
Length of Day
13h 34m
Last Quarter, 41% of the Moon is Illuminated
Jul 30
Last Quarter
Aug 6
New
Aug 14
First Quarter
Aug 20
Full
Aug 28
Last Quarter

Hourly Weather History & Observations

Time (CDT) Temp. Heat Index Dew Point Humidity Pressure Visibility Wind Dir Wind Speed Gust Speed Precip Events Conditions
12:58 AM 77.7 °F - 72.3 °F 83% 30.05 in 10.0 mi SSE 11.5 mph - N/A   Clear
1:53 AM 77.0 °F - 73.4 °F 89% 30.05 in 10.0 mi SSE 10.4 mph - N/A   Mostly Cloudy
1:58 AM 76.5 °F - 72.9 °F 89% 30.06 in 10.0 mi SSE 9.2 mph - N/A   Mostly Cloudy
2:58 AM 78.1 °F - 73.2 °F 85% 30.06 in 10.0 mi South 10.4 mph - N/A   Overcast
3:08 AM 78.8 °F - 73.4 °F 83% 30.06 in 10.0 mi South 10.4 mph - N/A   Overcast
3:58 AM 77.9 °F - 72.9 °F 84% 30.04 in 10.0 mi South 8.1 mph - N/A   Overcast
4:58 AM 78.4 °F - 72.7 °F 82% 30.04 in 10.0 mi South 9.2 mph - N/A   Overcast
5:23 AM 78.8 °F - 73.4 °F 83% 30.07 in 10.0 mi South 11.5 mph - N/A   Mostly Cloudy
5:28 AM 78.8 °F - 73.4 °F 83% 30.08 in 10.0 mi South 10.4 mph - N/A   Mostly Cloudy
5:33 AM 78.8 °F - 73.4 °F 83% 30.08 in 10.0 mi South 10.4 mph - N/A   Mostly Cloudy
5:58 AM 78.1 °F - 73.0 °F 84% 30.05 in 10.0 mi South 9.2 mph - N/A   Overcast
6:23 AM 77.0 °F - 73.4 °F 89% 30.09 in 10.0 mi South 9.2 mph - N/A   Overcast
6:28 AM 77.0 °F - 73.4 °F 89% 30.09 in 10.0 mi South 9.2 mph - N/A   Overcast
6:33 AM 78.8 °F - 73.4 °F 83% 30.09 in 10.0 mi South 9.2 mph - N/A   Overcast
6:58 AM 77.9 °F - 72.9 °F 84% 30.06 in 10.0 mi South 8.1 mph - N/A   Overcast
7:08 AM 77.0 °F - 73.4 °F 89% 30.10 in 10.0 mi South 8.1 mph - N/A   Mostly Cloudy
7:58 AM 78.4 °F - 72.7 °F 82% 30.09 in 10.0 mi South 10.4 mph - N/A   Mostly Cloudy
8:58 AM 80.6 °F 85.2 °F 73.2 °F 78% 30.09 in 10.0 mi South 13.8 mph - N/A   Mostly Cloudy
9:42 AM 82.4 °F 88.2 °F 73.4 °F 74% 30.10 in 10.0 mi South 17.3 mph 21.9 mph N/A   Mostly Cloudy
9:58 AM 82.4 °F 87.7 °F 72.5 °F 72% 30.08 in 10.0 mi SSW 15.0 mph 20.7 mph N/A   Mostly Cloudy
10:58 AM 87.8 °F 94.7 °F 72.1 °F 60% 30.09 in 10.0 mi South 15.0 mph - N/A   Mostly Cloudy
11:58 AM 89.4 °F 96.3 °F 71.6 °F 56% 30.08 in 10.0 mi South 15.0 mph 21.9 mph N/A   Clear
12:58 PM 92.5 °F 97.9 °F 69.8 °F 47% 30.06 in 10.0 mi SSW 10.4 mph - N/A   Clear
1:58 PM 94.5 °F 98.5 °F 67.5 °F 41% 30.02 in 10.0 mi SSW 10.4 mph 18.4 mph N/A   Partly Cloudy
2:58 PM 97.7 °F 100.6 °F 65.1 °F 34% 30.00 in 10.0 mi South 10.4 mph 18.4 mph N/A   Clear
3:58 PM 99.0 °F 101.1 °F 63.3 °F 31% 29.98 in 10.0 mi South 9.2 mph 20.7 mph N/A   Clear
4:58 PM 100.0 °F 100.7 °F 60.8 °F 27% 29.96 in 10.0 mi South 11.5 mph 21.9 mph N/A   Clear
5:58 PM 99.7 °F 99.6 °F 58.6 °F 26% 29.95 in 10.0 mi SSW 11.5 mph - N/A   Clear
6:58 PM 97.2 °F 100.2 °F 65.5 °F 35% 29.95 in 10.0 mi SSE 16.1 mph 20.7 mph N/A   Clear
7:58 PM 91.6 °F 95.7 °F 67.8 °F 46% 29.97 in 10.0 mi SSE 13.8 mph - N/A   Clear
8:58 PM 87.6 °F 91.1 °F 67.8 °F 52% 30.00 in 10.0 mi SSE 16.1 mph - N/A   Clear
9:58 PM 84.2 °F 87.1 °F 67.6 °F 57% 30.01 in 10.0 mi SSE 16.1 mph - N/A   Clear
10:58 PM 81.7 °F 85.4 °F 70.3 °F 68% 30.04 in 10.0 mi South 16.1 mph 23.0 mph N/A   Clear
11:58 PM 78.8 °F - 72.1 °F 80% 30.06 in 10.0 mi SSE 11.5 mph - N/A   Clear